STARLINK-2163, 47749

Orbit data source: Space-Track

STARLINK-2163, 47749 is a payload satellite owned by SpaceX/Seattle (US) in LEO that was launched on Thu, 04 Mar 2021 UTC via an FALCON 9 launch vehicle from the Air Force Eastern Test Range (AFETR). Payload-class satellites include a variety of spacecraft equipped with specific instruments for various scientific and technological missions. These include communications satellites like Starlink; space stations such as the ISS; scientific satellites like the Hubble; Earth observation satellites from companies like Planet Labs, Umbra, and HawkEye 360; GPS; miniature CubeSats for education and research; and military/defense satellites.

Loading next visibility...
Identifier
47749, 2021-017AD
Orbit
LEO
Country
Flag of USUS
Related business
Manufacturer
SpaceX/Seattle
Mission
Operational Commercial Communications
Bus & Motor
STARLINK, Unknown motor
Mass
260 kg wet, ~248 kg dry
Launch date (UTC)
2021-03-04 (5 years ago)
Launch vehicle
FALCON 9
Launch site
Air Force Eastern Test Range (AFETR)
Object type
Payload
Rocket body
Debris
Shape & HBR
Box + 1 Pan, 10.1 m
Radar Cross Section
13.562 m², Large (>1 m²)

Expand to show TLE details & history
Last TLE update: 13 hours ago

TLE from 13 hours ago
0 STARLINK-2163
1 47749U 21017AD  25346.89416703 -.00004695  00000-0 -29665-3 0  9997
2 47749  53.0534 231.2570 0001214  91.7783 268.3345 15.06384144264780
Epoch: 2025-12-12T21:27Z
TLE epoch observation values (Epoch: 2025-12-12T21:27:36.031Z)
Latitude
-0.00002°
Longitude
-172.47239°
Altitude
548.164 km
Speed
7.589 km/s
True Right ascension
15h 25m 01s
True Declination
0° 00' 00"
Sunlit
Object was in daylight at epoch
Visualization orbit readout
Latitude
Unknown
Longitude
Unknown
Altitude
Unknown
Speed
Unknown
Apparent Right ascension
Unknown
Apparent Declination
Unknown
Sunlit
N/A
Visualization observer readout
Local Sidereal Time
09:18:50
Azimuth
Unknown
Elevation
Unknown
Doppler factor
Unknown
Orbital elements
Apogee altitude
548.372 km
Perigee altitude
546.69 km
Semi-major axis
6,925.668 km
Eccentricity
0.00012
Inclination
53.0534°
RAAN
231.257°
Arg. of periapsis
91.7783°
True anomaly
268.32059°
Mean anomaly
268.3345°
Eccentric anomaly
268.32755°
Mean motion
3.76574 °/min
Orbital period
95.6 mins
BSTAR
-0.00029665
Loading maneuver chart data...
Computing Atmospheric mass density...
Loading historical data...
Loading historical data...
Loading historical data...
Loading historical data...
Loading historical data...
Loading historical data...
Loading historical data...

Documentation

Showing up to 5 results
|